Regional Weather Roundup
Issued by NWS

Home | Current Version | Previous Version | Graphics & Text | Print | Product List | Glossary Off
Versions: 1 2 3 4 5 6 7 8 9 10 11 12 13 14 15 16 17 18 19 20 21 22 23 24 25 26 27 28 29 30 31 32 33 34 35 36 37 38 39 40 41 42 43 44 45 46 47 48 49 50

000
ASUS43 KMKX 272200
RWRWI

WISCONSIN REGIONAL WEATHER ROUNDUP
NATIONAL WEATHER SERVICE MILWAUKEE/SULLIVAN WI
400 PM CST MON FEB 27 2017

NOTE: "FAIR" INDICATES FEW OR NO CLOUDS BELOW 12,000 FEET WITH NO
SIGNIFICANT WEATHER AND/OR OBSTRUCTIONS TO VISIBILITY.

WIZ001-002-006>008-014>016-023>028-272300-
NORTHWEST WISCONSIN

CITY           SKY/WX    TMP DP  RH WIND       PRES   REMARKS
SUPERIOR ARPT  SUNNY     30  24  79 E7        29.93F WCI  23
ASHLAND        SUNNY     39  24  55 NE8       29.92F WCI  33
HAYWARD        SUNNY     42  16  34 S15G24    29.90F
SIREN          PTSUNNY   44  17  33 S12G20    29.90S
CUMBERLAND     MOSUNNY   37  19  48 S13       29.92F WCI  29
RICE LAKE      MOSUNNY   40  19  43 S12       29.95F WCI  33
CHETEK         PTSUNNY   39  20  45 S10G16    29.95S WCI  32
LADYSMITH      SUNNY     41  19  42 S8G16     29.97S
EAU CLAIRE     NOT AVBL
MENOMONIE      CLOUDY    41  21  45 SE5       29.95F
NEW RICHMOND   CLOUDY    42  18  37 S10G16    29.92F
OSCEOLA        PTSUNNY   43  19  38 S13       29.94S
$$

WIZ003>005-009-010-017-018-272300-
NORTH CENTRAL WISCONSIN

CITY           SKY/WX    TMP DP  RH WIND       PRES   REMARKS
MANITOWISH WTR SUNNY     39  17  42 SW8       29.93R WCI  33
ARBOR VITAE    SUNNY     42  17  37 SW15        N/A
WOODRUFF       SUNNY     42  17  37 SW15        N/A
RHINELANDER    CLOUDY    39  17  41 SW9       29.96S WCI  33
EAGLE RIVER    SUNNY     39  10  31 SW10G20   29.94S WCI  32
LAND O LAKES   SUNNY     40  14  34 SW8       29.95S
PHILLIPS       SUNNY     39  16  40 SW10G18   29.94S WCI  32
TOMAHAWK       CLOUDY    39  17  40 S6        29.97S WCI  35
MEDFORD        MOSUNNY   37  18  44 S7        29.97S WCI  32
MERRILL        NOT AVBL
$$

WIZ029-030-035-036-043>047-272300-
CENTRAL WISCONSIN

CITY           SKY/WX    TMP DP  RH WIND       PRES   REMARKS
WAUSAU         SUNNY     40  17  39 S13       29.98S WCI  32
MOSINEE        MOSUNNY   39  19  45 S9        30.00S WCI  33
MARSHFIELD     SUNNY     41  18  39 S7        29.97S
STEVENS POINT  SUNNY     40  19  41 S12       30.00F WCI  33
WAUPACA        SUNNY     44  26  48 SE9       30.03S
WAUTOMA        MOSUNNY   42  29  59 MISG      30.03S
WISC RAPIDS    SUNNY     43  20  39 SW9       30.00F
CAMP DOUGLAS   NOT AVBL
$$

WIZ011>013-019>022-031-037>040-048>050-272300-
NORTHEAST WISCONSIN

CITY           SKY/WX    TMP DP  RH WIND       PRES   REMARKS
ANTIGO         CLOUDY    38  19  45 SW8       29.99S WCI  32
SHAWANO        SUNNY     43  24  46 S8        30.04S
OCONTO         SUNNY     39  26  61 S9G17     30.06S WCI  32
STURGEON BAY   CLOUDY    37  26  64 S13G22    30.07F WCI  29
GREEN BAY      MOSUNNY   39  30  70 S13       30.05F WCI  31
MANITOWOC      NOT AVBL
APPLETON       PTSUNNY   41  25  52 S13       30.02F
CLINTONVILLE   SUNNY     41  23  48 S9        30.03F
OSHKOSH        MOSUNNY   41  29  62 S6        30.03F
$$

WIZ032>034-041-042-053>061-272300-
SOUTHWEST WISCONSIN

CITY           SKY/WX    TMP DP  RH WIND       PRES   REMARKS
LA CROSSE      SUNNY     47  30  51 S12       29.97F
SPARTA         SUNNY     46  29  52 S8        29.99F
VIROQUA        SUNNY     44  32  61 S6        29.98S
BOSCOBEL       SUNNY     50  32  50 SW10      30.00F
PRAIRIE DU CHI SUNNY     50  30  45 S7        29.99S
PLATTEVILLE    SUNNY     50  34  54 S9        30.00F
$$

WIZ056-057-062-063-064-067-068-272300-
SOUTH CENTRAL WISCONSIN

CITY           SKY/WX    TMP DP  RH WIND       PRES   REMARKS
REEDSBURG      SUNNY     46  33  61 S5        29.99F
BARABOO/DELLS  MOSUNNY   45  30  55 SW8       30.00F
LONE ROCK      NOT AVBL
MINERAL POINT  SUNNY     50  34  53 SW12      30.00S
MADISON        PTSUNNY   48  29  47 S13       30.01F
MIDDLETON      MOSUNNY   51  31  47 S12       30.02S
WATERTOWN      SUNNY     48  32  53 S9        30.03F
MONROE         SUNNY     48  32  53 S10       30.01F
JANESVILLE     MOSUNNY   52  30  43 S12G17    30.04F
$$

WIZ051-052-058>065-066-070>072-272300-
SOUTHEAST WISCONSIN

CITY           SKY/WX    TMP DP  RH WIND       PRES   REMARKS
MILWAUKEE      PTSUNNY   46  34  62 SE12      30.07F
WAUKESHA       MOSUNNY   46  30  53 SW10G23   30.06F
MILWAUKEE/TIMM PTSUNNY   45  30  57 SE8       30.07F
RACINE         SUNNY     44  33  65 S13       30.10S
KENOSHA        MOSUNNY   48  34  58 SE12      30.08S
FOND DU LAC    CLOUDY    42  28  57 SE9       30.03F
SHEBOYGAN      CLOUDY    38  31  76 SE8       30.07F WCI  32
WEST BEND      CLOUDY    46  30  53 S10       30.05F
JUNEAU         SUNNY     46  32  56 S15       30.04F
$$

LSZ147-162-272300-
LAKE SUPERIOR

STATION/POSITION TIME  TEMP    WIND        PRES    WAVE
                       AIR SEA DIR/SP/G            HT/PER
                 (UTC) (F)     (DEG/KT/KT) (MB)    (FT/S)
DEVILS ISLAND    2100   27      40/  7/  8 1015.6F
PORT WING        2140   29      30/ 12/ 15 1013.9F
SAXON HARBOR     2130   30      40/  9/ 10 1013.9F
$$

LMZ867-665-643>646-272300-
LAKE MICHIGAN

STATION/POSITION TIME  TEMP    WIND        PRES    WAVE
                       AIR SEA DIR/SP/G            HT/PER
                 (UTC) (F)     (DEG/KT/KT) (MB)    (FT/S)
CHAMBERS ISLAND  2140   39     160/  7/ 13 1017.9S
NORTHPORT PIER   2140   38     170/  6/ 14 1018.6S
SISTER BAY       2105          210/ 18/ 20   N/A
KEWAUNEE LAKESHO 2130   36     180/ 15/ 16 1018.4F
SHEBOYGAN LAKESH 2100   36     160/  9/  9 1019.5F
PORT WASHINGTON  2130   39     180/  7/  9 1019.6S
MILWAUKEE LAKESH 2130   37     130/  9/ 10   N/A
KENOSHA   LAKESH 2100   40     180/  9/ 13 1019.0
$$

TC  - TEMPERATURE IN CELSIUS
VSB - VISIBILITY IN STATUTE MILES
WCI - WIND CHILL INDEX
HX  - HEAT INDEX





USA.gov is the U.S. government's official web portal to all federal, state and local government web resources and services.